Year,Month,Day,Hour,Minute,Value (Times are PST for temperature in C)
2007,10,18,09,46,6.80
2007,10,18,09,47,6.70
2007,10,18,09,48,6.70
2007,10,18,09,49,6.70
2007,10,18,09,50,6.70
2007,10,18,09,51,6.70
2007,10,18,09,52,6.70
2007,10,18,09,53,6.70
2007,10,18,09,54,6.70
2007,10,18,09,55,6.70
2007,10,18,09,56,6.60
2007,10,18,09,57,6.60
2007,10,18,09,58,6.60
2007,10,18,09,59,6.60
2007,10,18,10,00,6.60
2007,10,18,10,01,6.60
2007,10,18,10,02,6.60
2007,10,18,10,03,6.60
2007,10,18,10,04,6.60
2007,10,18,10,05,6.50
2007,10,18,10,06,6.50
2007,10,18,10,07,6.40
2007,10,18,10,08,6.40
2007,10,18,10,09,6.30
2007,10,18,10,10,6.30
2007,10,18,10,11,6.30
2007,10,18,10,12,6.30
2007,10,18,10,13,6.30
2007,10,18,10,14,6.30
2007,10,18,10,15,6.20
2007,10,18,10,16,6.30
2007,10,18,10,17,6.30
2007,10,18,10,18,6.20
2007,10,18,10,19,6.20
2007,10,18,10,20,6.20
2007,10,18,10,21,6.20
2007,10,18,10,22,6.20
2007,10,18,10,23,6.20
2007,10,18,10,24,6.20
2007,10,18,10,25,6.10
2007,10,18,10,28,6.10
2007,10,18,10,29,6.10
2007,10,18,10,30,6.10
2007,10,18,10,31,6.10
2007,10,18,10,32,6.10
2007,10,18,10,33,6.10
2007,10,18,10,34,6.10
2007,10,18,10,35,6.10
2007,10,18,10,36,6.10
2007,10,18,10,37,6.10
2007,10,18,10,38,6.10
2007,10,18,10,39,6.10
2007,10,18,10,40,6.10
2007,10,18,10,41,6.10
2007,10,18,10,42,6.10
2007,10,18,10,43,6.10
2007,10,18,10,44,6.10
2007,10,18,10,45,6.10
2007,10,18,10,46,6.10
2007,10,18,10,47,6.10
2007,10,18,10,48,6.10
2007,10,18,10,49,6.10
2007,10,18,10,50,6.10
2007,10,18,10,51,6.10
2007,10,18,10,52,6.10
2007,10,18,10,53,6.10
2007,10,18,10,54,6.10
2007,10,18,10,55,6.10
2007,10,18,10,56,6.10
2007,10,18,10,57,6.10
2007,10,18,10,58,6.10
2007,10,18,10,59,6.10
2007,10,18,11,00,6.20
2007,10,18,11,01,6.20
2007,10,18,11,02,6.20
2007,10,18,11,03,6.10
2007,10,18,11,04,6.10
2007,10,18,11,05,6.10
2007,10,18,11,06,6.10
2007,10,18,11,07,6.10
2007,10,18,11,08,6.10
2007,10,18,11,09,6.10
2007,10,18,11,10,6.10
2007,10,18,11,11,6.10
2007,10,18,11,12,6.10
2007,10,18,11,13,6.10
2007,10,18,11,14,6.10
2007,10,18,11,15,6.10
2007,10,18,11,16,6.10
2007,10,18,11,17,6.00
2007,10,18,11,18,6.00
2007,10,18,11,19,6.00
2007,10,18,11,20,5.90
2007,10,18,11,21,5.90
2007,10,18,11,22,5.90
2007,10,18,11,23,5.90
2007,10,18,11,24,5.90
2007,10,18,11,25,5.90
2007,10,18,11,26,5.90
2007,10,18,11,27,5.90
2007,10,18,11,28,5.90
2007,10,18,11,29,5.90
2007,10,18,11,30,5.90
2007,10,18,11,31,5.90
2007,10,18,11,32,5.90
2007,10,18,11,33,5.90
2007,10,18,11,34,5.90
2007,10,18,11,35,5.90
2007,10,18,11,36,5.90
2007,10,18,11,37,5.90
2007,10,18,11,38,6.00
2007,10,18,11,39,6.00
2007,10,18,11,40,6.00
2007,10,18,11,41,6.00
2007,10,18,11,42,6.00
2007,10,18,11,43,6.00
2007,10,18,11,44,6.00
2007,10,18,11,45,6.00
2007,10,18,11,46,6.00
2007,10,18,11,47,6.00
2007,10,18,11,48,6.00
2007,10,18,11,49,6.00
2007,10,18,11,50,6.00
2007,10,18,11,51,6.00
2007,10,18,11,52,6.00
2007,10,18,11,53,6.00
2007,10,18,11,54,6.00
2007,10,18,11,55,6.00
2007,10,18,11,56,6.00
2007,10,18,11,57,6.00
2007,10,18,11,58,6.10
2007,10,18,11,59,6.10
2007,10,18,12,00,6.10
2007,10,18,12,01,6.10
2007,10,18,12,02,6.10
2007,10,18,12,03,6.10
2007,10,18,12,04,6.10
2007,10,18,12,05,6.10
2007,10,18,12,06,6.10
2007,10,18,12,07,6.10
2007,10,18,12,08,6.10
2007,10,18,12,09,6.10
2007,10,18,12,10,6.10
2007,10,18,12,11,6.10
2007,10,18,12,12,6.10
2007,10,18,12,13,6.10
2007,10,18,12,14,6.10
2007,10,18,12,15,6.10
2007,10,18,12,16,6.10
2007,10,18,12,17,6.10
2007,10,18,12,18,6.10
2007,10,18,12,19,6.10
2007,10,18,12,20,6.10
2007,10,18,12,21,6.10
2007,10,18,12,22,6.10
2007,10,18,12,23,6.10
2007,10,18,12,24,6.20
2007,10,18,12,25,6.10
2007,10,18,12,26,6.10
2007,10,18,12,27,6.10
2007,10,18,12,28,6.10
2007,10,18,12,29,6.10
2007,10,18,12,30,6.10
2007,10,18,12,31,6.10
2007,10,18,12,32,6.10
2007,10,18,12,33,6.10
2007,10,18,12,34,6.10
2007,10,18,12,35,6.10
2007,10,18,12,36,6.10
2007,10,18,12,37,6.10
2007,10,18,12,38,6.10
2007,10,18,12,39,6.10
2007,10,18,12,40,6.10
2007,10,18,12,41,6.10
2007,10,18,12,42,6.10
2007,10,18,12,43,6.10
2007,10,18,12,44,6.10
2007,10,18,12,45,6.10
2007,10,18,12,46,6.10
2007,10,18,12,47,6.10
2007,10,18,12,48,6.10
2007,10,18,12,49,6.20
2007,10,18,12,50,6.20
2007,10,18,12,51,6.20
2007,10,18,12,52,6.20
2007,10,18,12,53,6.20
2007,10,18,12,54,6.20
2007,10,18,12,55,6.20
2007,10,18,12,56,6.20
2007,10,18,12,57,6.20
2007,10,18,12,58,6.20
2007,10,18,12,59,6.20
2007,10,18,13,00,6.20
2007,10,18,13,01,6.20
2007,10,18,13,02,6.20
2007,10,18,13,03,6.20
2007,10,18,13,04,6.20
2007,10,18,13,05,6.20
2007,10,18,13,06,6.20
2007,10,18,13,07,6.30
2007,10,18,13,08,6.30
2007,10,18,13,09,6.30
2007,10,18,13,10,6.30
2007,10,18,13,11,6.30
2007,10,18,13,12,6.30
2007,10,18,13,13,6.30
2007,10,18,13,14,6.30
2007,10,18,13,15,6.30
2007,10,18,13,16,6.30
2007,10,18,13,17,6.30
2007,10,18,13,18,6.30
2007,10,18,13,19,6.30
2007,10,18,13,20,6.30
2007,10,18,13,21,6.30
2007,10,18,13,22,6.30
2007,10,18,13,23,6.30
2007,10,18,13,24,6.30
2007,10,18,13,25,6.30
2007,10,18,13,26,6.40
2007,10,18,13,27,6.40
2007,10,18,13,28,6.40
2007,10,18,13,29,6.40
2007,10,18,13,30,6.40
2007,10,18,13,31,6.50
2007,10,18,13,32,6.50
2007,10,18,13,33,6.50
2007,10,18,13,34,6.50
2007,10,18,13,35,6.60
2007,10,18,13,36,6.60
2007,10,18,13,37,6.60
2007,10,18,13,38,6.60
2007,10,18,13,39,6.60
2007,10,18,13,40,6.60
2007,10,18,13,41,6.60
2007,10,18,13,42,6.60
2007,10,18,13,43,6.60
2007,10,18,13,44,6.60
2007,10,18,13,45,6.50
2007,10,18,13,46,6.50
2007,10,18,13,47,6.60
2007,10,18,13,48,6.60
2007,10,18,13,49,6.60
2007,10,18,13,50,6.60
2007,10,18,13,51,6.60
2007,10,18,13,52,6.60
2007,10,18,13,53,6.60
2007,10,18,13,54,6.60
2007,10,18,13,55,6.70
2007,10,18,13,56,6.70
2007,10,18,13,57,6.70
2007,10,18,13,58,6.70
2007,10,18,13,59,6.70
2007,10,18,14,00,6.70
2007,10,18,14,01,6.70
2007,10,18,14,02,6.80
2007,10,18,14,03,6.80
2007,10,18,14,04,6.80
2007,10,18,14,05,6.80
2007,10,18,14,06,6.80
2007,10,18,14,07,6.80
2007,10,18,14,08,6.80
2007,10,18,14,09,6.80
2007,10,18,14,10,6.80
2007,10,18,14,11,6.80
2007,10,18,14,12,6.80
2007,10,18,14,13,6.80
2007,10,18,14,14,6.80
2007,10,18,14,15,6.80
2007,10,18,14,16,6.80
2007,10,18,14,17,6.80
2007,10,18,14,18,6.80
2007,10,18,14,19,6.80
2007,10,18,14,20,6.80
2007,10,18,14,21,6.80
2007,10,18,14,22,6.80
2007,10,18,14,23,6.80
2007,10,18,14,24,6.80
2007,10,18,14,25,6.80
2007,10,18,14,26,6.80
2007,10,18,14,27,6.80
2007,10,18,14,28,6.70
2007,10,18,14,29,6.70
2007,10,18,14,30,6.70
2007,10,18,14,31,6.70
2007,10,18,14,32,6.70
2007,10,18,14,33,6.70
2007,10,18,14,34,6.70
2007,10,18,14,35,6.70
2007,10,18,14,36,6.70
2007,10,18,14,37,6.70
2007,10,18,14,38,6.70
2007,10,18,14,39,6.70
2007,10,18,14,40,6.70
2007,10,18,14,41,6.70
2007,10,18,14,42,6.70
2007,10,18,14,43,6.70
2007,10,18,14,44,6.70
2007,10,18,14,45,6.70
2007,10,18,14,46,6.70
2007,10,18,14,47,6.70
2007,10,18,14,48,6.70
2007,10,18,14,49,6.70
2007,10,18,14,50,6.70
2007,10,18,14,51,6.70
2007,10,18,14,52,6.70
2007,10,18,14,53,6.70
2007,10,18,14,54,6.70
2007,10,18,14,55,6.70
2007,10,18,14,56,6.70
2007,10,18,14,57,6.70
2007,10,18,14,58,6.60
2007,10,18,14,59,6.60
2007,10,18,15,00,6.70
2007,10,18,15,01,6.70
2007,10,18,15,02,6.70
2007,10,18,15,03,6.70
2007,10,18,15,04,6.70
2007,10,18,15,05,6.70
2007,10,18,15,06,6.70
2007,10,18,15,07,6.70
2007,10,18,15,08,6.70
2007,10,18,15,09,6.70
2007,10,18,15,10,6.70
2007,10,18,15,11,6.70
2007,10,18,15,12,6.70
2007,10,18,15,13,6.70
2007,10,18,15,14,6.70
2007,10,18,15,15,6.70
2007,10,18,15,16,6.80
2007,10,18,15,17,6.80
2007,10,18,15,18,6.80
2007,10,18,15,19,6.80
2007,10,18,15,20,6.80
2007,10,18,15,21,6.80
2007,10,18,15,22,6.80
2007,10,18,15,23,6.70
2007,10,18,15,24,6.70
2007,10,18,15,25,6.70
2007,10,18,15,26,6.70
2007,10,18,15,27,6.70
2007,10,18,15,28,6.70
2007,10,18,15,29,6.70
2007,10,18,15,30,6.70
2007,10,18,15,31,6.70
2007,10,18,15,32,6.70
2007,10,18,15,33,6.70
2007,10,18,15,34,6.70
2007,10,18,15,35,6.70
2007,10,18,15,36,6.70
2007,10,18,15,37,6.70
2007,10,18,15,38,6.70
2007,10,18,15,39,6.70
2007,10,18,15,40,6.70
2007,10,18,15,41,6.60
2007,10,18,15,42,6.70
2007,10,18,15,43,6.70
2007,10,18,15,44,6.70
2007,10,18,15,45,6.60
2007,10,18,15,46,6.60
2007,10,18,15,47,6.60
2007,10,18,15,48,6.60
2007,10,18,15,49,6.60
2007,10,18,15,50,6.60
2007,10,18,15,51,6.60
2007,10,18,15,52,6.50
2007,10,18,15,53,6.50
2007,10,18,15,54,6.50
2007,10,18,15,55,6.40
2007,10,18,15,56,6.40
2007,10,18,15,57,6.40
2007,10,18,15,58,6.40
2007,10,18,15,59,6.40
2007,10,18,16,00,6.50
2007,10,18,16,01,6.50
2007,10,18,16,02,6.50
2007,10,18,16,03,6.50
2007,10,18,16,04,6.50
2007,10,18,16,05,6.50
2007,10,18,16,06,6.50
2007,10,18,16,07,6.50
2007,10,18,16,08,6.40
2007,10,18,16,09,6.40
2007,10,18,16,10,6.40
2007,10,18,16,11,6.30
2007,10,18,16,12,6.30
2007,10,18,16,13,6.30
2007,10,18,16,14,6.20
2007,10,18,16,15,6.20
2007,10,18,16,16,6.20
2007,10,18,16,17,6.10
2007,10,18,16,18,6.10
2007,10,18,16,19,6.10
2007,10,18,16,20,6.10
2007,10,18,16,21,6.00
2007,10,18,16,22,6.00
2007,10,18,16,23,6.00
2007,10,18,16,24,6.00
2007,10,18,16,25,5.90
2007,10,18,16,26,5.90
2007,10,18,16,27,5.90
2007,10,18,16,28,5.90
2007,10,18,16,29,5.90
2007,10,18,16,30,5.90
2007,10,18,16,31,5.90
2007,10,18,16,32,5.90
2007,10,18,16,33,5.90
2007,10,18,16,34,5.90
2007,10,18,16,35,5.90
2007,10,18,16,36,5.90
2007,10,18,16,37,5.90
2007,10,18,16,38,5.90
2007,10,18,16,39,5.90
2007,10,18,16,40,6.00
2007,10,18,16,41,6.00
2007,10,18,16,42,6.00
2007,10,18,16,43,6.10
2007,10,18,16,44,6.10
2007,10,18,16,45,6.10
2007,10,18,16,46,6.10
2007,10,18,16,47,6.10
2007,10,18,16,48,6.20
2007,10,18,16,49,6.20
2007,10,18,16,50,6.20
2007,10,18,16,51,6.20
2007,10,18,16,52,6.20
2007,10,18,16,53,6.20
2007,10,18,16,54,6.20
2007,10,18,16,55,6.20
2007,10,18,16,56,6.20
2007,10,18,16,57,6.20
2007,10,18,16,58,6.30
2007,10,18,16,59,6.30
2007,10,18,17,00,6.30
2007,10,18,17,01,6.30
2007,10,18,17,02,6.30
2007,10,18,17,03,6.30
2007,10,18,17,04,6.30
2007,10,18,17,05,6.30
2007,10,18,17,06,6.30
2007,10,18,17,07,6.30
2007,10,18,17,08,6.30
2007,10,18,17,09,6.30
2007,10,18,17,10,6.40
2007,10,18,17,11,6.40
2007,10,18,17,12,6.40
2007,10,18,17,13,6.40
2007,10,18,17,14,6.40
2007,10,18,17,15,6.40
2007,10,18,17,16,6.40
2007,10,18,17,17,6.40
2007,10,18,17,18,6.40
2007,10,18,17,19,6.40
2007,10,18,17,20,6.50
2007,10,18,17,21,6.50
2007,10,18,17,22,6.50
2007,10,18,17,23,6.50
2007,10,18,17,24,6.50
2007,10,18,17,25,6.50
2007,10,18,17,26,6.60
2007,10,18,17,27,6.60
2007,10,18,17,28,6.70
2007,10,18,17,29,6.70
2007,10,18,17,30,6.70
2007,10,18,17,31,6.80
2007,10,18,17,32,6.80
2007,10,18,17,33,6.80
2007,10,18,17,34,6.80
2007,10,18,17,35,6.80
2007,10,18,17,36,6.80
2007,10,18,17,37,6.90
2007,10,18,17,38,6.80
2007,10,18,17,39,6.80
2007,10,18,17,40,6.80
2007,10,18,17,41,6.80
2007,10,18,17,42,6.80
2007,10,18,17,43,6.80
2007,10,18,17,44,6.70
2007,10,18,17,45,6.70
2007,10,18,17,46,6.70
2007,10,18,17,47,6.70
2007,10,18,17,48,6.70
2007,10,18,17,49,6.60
2007,10,18,17,50,6.60
2007,10,18,17,51,6.60
2007,10,18,17,52,6.60
2007,10,18,17,53,6.60
2007,10,18,17,54,6.60
2007,10,18,17,55,6.60
2007,10,18,17,56,6.60
2007,10,18,17,57,6.60
2007,10,18,17,58,6.60
2007,10,18,17,59,6.60
2007,10,18,18,00,6.60
2007,10,18,18,01,6.60
2007,10,18,18,02,6.60
2007,10,18,18,03,6.60
2007,10,18,18,04,6.60
2007,10,18,18,05,6.60
2007,10,18,18,06,6.60
2007,10,18,18,07,6.50
2007,10,18,18,08,6.50
2007,10,18,18,09,6.50
2007,10,18,18,10,6.50
2007,10,18,18,11,6.50
2007,10,18,18,12,6.40
2007,10,18,18,13,6.40
2007,10,18,18,14,6.40
2007,10,18,18,15,6.40
2007,10,18,18,16,6.40
2007,10,18,18,17,6.40
2007,10,18,18,18,6.40
2007,10,18,18,19,6.40
2007,10,18,18,20,6.40
2007,10,18,18,21,6.40
2007,10,18,18,22,6.40
2007,10,18,18,23,6.30
2007,10,18,18,24,6.30
2007,10,18,18,25,6.30
2007,10,18,18,26,6.30
2007,10,18,18,27,6.30
2007,10,18,18,28,6.40
2007,10,18,18,29,6.40
2007,10,18,18,30,6.40
2007,10,18,18,31,6.40
2007,10,18,18,32,6.40
2007,10,18,18,33,6.40
2007,10,18,18,34,6.40
2007,10,18,18,35,6.40
2007,10,18,18,36,6.40
2007,10,18,18,37,6.40
2007,10,18,18,38,6.40
2007,10,18,18,39,6.50
2007,10,18,18,40,6.50
2007,10,18,18,41,6.50
2007,10,18,18,42,6.50
2007,10,18,18,43,6.60
2007,10,18,18,44,6.60
2007,10,18,18,45,6.60
2007,10,18,18,46,6.60
2007,10,18,18,47,6.60
2007,10,18,18,48,6.60
2007,10,18,18,49,6.60
2007,10,18,18,50,6.60
2007,10,18,18,51,6.60
2007,10,18,18,52,6.60
2007,10,18,18,53,6.60
2007,10,18,18,54,6.60
2007,10,18,18,55,6.60
2007,10,18,18,56,6.50
2007,10,18,18,57,6.50
2007,10,18,18,58,6.50
2007,10,18,18,59,6.50
2007,10,18,19,00,6.40
2007,10,18,19,01,6.40
2007,10,18,19,02,6.40
2007,10,18,19,03,6.40
2007,10,18,19,04,6.40
2007,10,18,19,05,6.40
2007,10,18,19,06,6.40
2007,10,18,19,07,6.30
2007,10,18,19,08,6.30
2007,10,18,19,09,6.30
2007,10,18,19,10,6.30
2007,10,18,19,11,6.30
2007,10,18,19,12,6.30
2007,10,18,19,13,6.30
2007,10,18,19,14,6.30
2007,10,18,19,15,6.40
2007,10,18,19,16,6.40
2007,10,18,19,17,6.40
2007,10,18,19,18,6.40
2007,10,18,19,19,6.40
2007,10,18,19,20,6.40
2007,10,18,19,21,6.40
2007,10,18,19,22,6.40
2007,10,18,19,23,6.40
2007,10,18,19,24,6.40
2007,10,18,19,25,6.30
2007,10,18,19,26,6.30
2007,10,18,19,27,6.30
2007,10,18,19,28,6.30
2007,10,18,19,29,6.30
2007,10,18,19,30,6.20
2007,10,18,19,31,6.20
2007,10,18,19,32,6.20
2007,10,18,19,33,6.20
2007,10,18,19,34,6.20
2007,10,18,19,35,6.10
2007,10,18,19,36,6.10
2007,10,18,19,37,6.10
2007,10,18,19,38,6.10
2007,10,18,19,39,6.10
2007,10,18,19,40,6.10
2007,10,18,19,41,6.10
2007,10,18,19,42,6.10
2007,10,18,19,43,6.10
2007,10,18,19,44,6.00
2007,10,18,19,45,6.10
2007,10,18,19,46,6.00
2007,10,18,19,47,6.00
2007,10,18,19,48,6.00
2007,10,18,19,49,6.00
2007,10,18,19,50,6.00
2007,10,18,19,51,6.00
2007,10,18,19,52,6.00
2007,10,18,19,53,6.00
2007,10,18,19,54,6.00
2007,10,18,19,55,6.10
2007,10,18,19,56,6.10
2007,10,18,19,57,6.10
2007,10,18,19,58,6.10
2007,10,18,19,59,6.10
2007,10,18,20,00,6.00
2007,10,18,20,01,6.00
2007,10,18,20,02,5.90
2007,10,18,20,03,5.90
2007,10,18,20,04,5.90
2007,10,18,20,05,5.90
2007,10,18,20,06,5.90
2007,10,18,20,07,5.90
2007,10,18,20,08,5.80
2007,10,18,20,09,5.80
2007,10,18,20,10,5.80
2007,10,18,20,11,5.80
2007,10,18,20,12,5.80
2007,10,18,20,13,5.80
2007,10,18,20,14,5.80
2007,10,18,20,15,5.80
2007,10,18,20,16,5.80
2007,10,18,20,17,5.80
2007,10,18,20,18,5.80
2007,10,18,20,19,5.80
2007,10,18,20,20,5.80
2007,10,18,20,21,5.80
2007,10,18,20,22,5.80
2007,10,18,20,23,5.80
2007,10,18,20,24,5.80
2007,10,18,20,25,5.80
2007,10,18,20,26,5.80
2007,10,18,20,27,5.80
2007,10,18,20,28,5.80
2007,10,18,20,29,5.80
2007,10,18,20,30,5.80
2007,10,18,20,31,5.80
2007,10,18,20,32,5.80
2007,10,18,20,33,5.80
2007,10,18,20,34,5.80
2007,10,18,20,35,5.80
2007,10,18,20,36,5.80
2007,10,18,20,37,5.80
2007,10,18,20,38,5.80
2007,10,18,20,39,5.80
2007,10,18,20,40,5.80
2007,10,18,20,41,5.80
2007,10,18,20,42,5.80
2007,10,18,20,43,5.90
2007,10,18,20,44,5.90
2007,10,18,20,45,5.90
2007,10,18,20,46,5.90
2007,10,18,20,47,5.90
2007,10,18,20,48,5.90
2007,10,18,20,49,5.90
2007,10,18,20,50,5.90
2007,10,18,20,51,5.90
2007,10,18,20,52,5.90
2007,10,18,20,53,5.90
2007,10,18,20,54,5.90
2007,10,18,20,55,5.80
2007,10,18,20,56,5.80
2007,10,18,20,57,5.80
2007,10,18,20,58,5.80
2007,10,18,20,59,5.80
2007,10,18,21,00,5.80
2007,10,18,21,01,5.80
2007,10,18,21,02,5.80
2007,10,18,21,03,5.80
2007,10,18,21,04,5.80
2007,10,18,21,05,5.80
2007,10,18,21,06,5.80
2007,10,18,21,07,5.80
2007,10,18,21,08,5.80
2007,10,18,21,09,5.80
2007,10,18,21,10,5.80
2007,10,18,21,11,5.80
2007,10,18,21,12,5.90
2007,10,18,21,13,5.90
2007,10,18,21,14,5.90
2007,10,18,21,15,5.90
2007,10,18,21,16,5.90
2007,10,18,21,17,5.90
2007,10,18,21,18,5.90
2007,10,18,21,19,5.90
2007,10,18,21,20,6.00
2007,10,18,21,21,6.00
2007,10,18,21,22,6.00
2007,10,18,21,23,5.90
2007,10,18,21,24,5.90
2007,10,18,21,25,5.80
2007,10,18,21,26,5.80
2007,10,18,21,27,5.80
2007,10,18,21,28,5.70
2007,10,18,21,29,5.70
2007,10,18,21,30,5.70
2007,10,18,21,31,5.70
2007,10,18,21,32,5.70
2007,10,18,21,33,5.70
2007,10,18,21,34,5.80
2007,10,18,21,35,5.80
2007,10,18,21,36,5.80
2007,10,18,21,37,5.80
2007,10,18,21,38,5.80
2007,10,18,21,39,5.80
2007,10,18,21,40,5.80
2007,10,18,21,41,5.70
2007,10,18,21,42,5.60
2007,10,18,21,43,5.60
2007,10,18,21,44,5.50
2007,10,18,21,45,5.50
2007,10,18,21,46,5.40
2007,10,18,21,47,5.40
2007,10,18,21,48,5.40
2007,10,18,21,49,5.40
2007,10,18,21,50,5.40
2007,10,18,21,51,5.40
2007,10,18,21,52,5.30
2007,10,18,21,53,5.30
2007,10,18,21,54,5.30
2007,10,18,21,55,5.30
2007,10,18,21,56,5.30
2007,10,18,21,57,5.40
2007,10,18,21,58,5.40
2007,10,18,21,59,5.50
2007,10,18,22,00,5.60
2007,10,18,22,01,5.60
2007,10,18,22,02,5.70
2007,10,18,22,03,5.70
2007,10,18,22,04,5.70
2007,10,18,22,05,5.80
2007,10,18,22,06,5.80
2007,10,18,22,07,5.80
2007,10,18,22,08,5.90
2007,10,18,22,09,5.90
2007,10,18,22,10,5.90
2007,10,18,22,11,6.00
2007,10,18,22,12,6.00
2007,10,18,22,13,6.00
2007,10,18,22,14,6.10
2007,10,18,22,15,6.10
2007,10,18,22,16,6.10
2007,10,18,22,17,6.10
2007,10,18,22,18,6.10
2007,10,18,22,19,6.10
2007,10,18,22,20,6.10
2007,10,18,22,21,6.20
2007,10,18,22,22,6.20
2007,10,18,22,23,6.20
2007,10,18,22,24,6.20
2007,10,18,22,25,6.20
2007,10,18,22,26,6.20
2007,10,18,22,27,6.20
2007,10,18,22,28,6.20
2007,10,18,22,29,6.20
2007,10,18,22,30,6.20
2007,10,18,22,31,6.30
2007,10,18,22,32,6.30
2007,10,18,22,33,6.30
2007,10,18,22,34,6.30
2007,10,18,22,35,6.20
2007,10,18,22,36,6.20
2007,10,18,22,37,6.20
2007,10,18,22,38,6.20
2007,10,18,22,39,6.20
2007,10,18,22,40,6.20
2007,10,18,22,41,6.20
2007,10,18,22,42,6.20
2007,10,18,22,43,6.20
2007,10,18,22,44,6.20
2007,10,18,22,45,6.20
2007,10,18,22,46,6.20
2007,10,18,22,47,6.20
2007,10,18,22,48,6.30
2007,10,18,22,49,6.30
2007,10,18,22,50,6.30
2007,10,18,22,51,6.30
2007,10,18,22,52,6.30
2007,10,18,22,53,6.30
2007,10,18,22,54,6.30
2007,10,18,22,55,6.30
2007,10,18,22,56,6.30
2007,10,18,22,57,6.30
2007,10,18,22,58,6.40
2007,10,18,22,59,6.40
2007,10,18,23,00,6.30
2007,10,18,23,01,6.40
2007,10,18,23,02,6.40
2007,10,18,23,03,6.40
2007,10,18,23,04,6.40
2007,10,18,23,05,6.40
2007,10,18,23,06,6.30
2007,10,18,23,07,6.30
2007,10,18,23,08,6.30
2007,10,18,23,09,6.30
2007,10,18,23,10,6.30
2007,10,18,23,11,6.30
2007,10,18,23,12,6.30
2007,10,18,23,13,6.30
2007,10,18,23,14,6.30
2007,10,18,23,15,6.30
2007,10,18,23,16,6.30
2007,10,18,23,17,6.30
2007,10,18,23,18,6.30
2007,10,18,23,19,6.30
2007,10,18,23,20,6.30
2007,10,18,23,21,6.30
2007,10,18,23,22,6.30
2007,10,18,23,23,6.30
2007,10,18,23,24,6.30
2007,10,18,23,25,6.30
2007,10,18,23,26,6.30
2007,10,18,23,27,6.20
2007,10,18,23,28,6.30
2007,10,18,23,29,6.30
2007,10,18,23,30,6.30
2007,10,18,23,31,6.30
2007,10,18,23,32,6.30
2007,10,18,23,33,6.30
2007,10,18,23,34,6.30
2007,10,18,23,35,6.30
2007,10,18,23,36,6.30
2007,10,18,23,37,6.30
2007,10,18,23,38,6.30
2007,10,18,23,39,6.30
2007,10,18,23,40,6.30
2007,10,18,23,41,6.30
2007,10,18,23,42,6.30
2007,10,18,23,43,6.30
2007,10,18,23,44,6.30
2007,10,18,23,45,6.30
2007,10,18,23,46,6.30
2007,10,18,23,47,6.30
2007,10,18,23,48,6.30
2007,10,18,23,49,6.30
2007,10,18,23,50,6.30
2007,10,18,23,51,6.20
2007,10,18,23,52,6.20
2007,10,18,23,53,6.20
2007,10,18,23,54,6.20
2007,10,18,23,55,6.20
2007,10,18,23,56,6.20
2007,10,18,23,57,6.20
2007,10,18,23,58,6.20
2007,10,18,23,59,6.20
